Date String (YYYY-MM-DD hh:mm:ss) UTC,Instrument flags,absolute air pressure of the measurement (hPa),sample flow rate (lpm),inlet stack bypass flow (lpm),air temperature of the measurement (°C),ambient temperature measured by the external sensor (°C),aerosol sample conditioner tube jacket temperature (°C),OPC LED temperature (°C),internal box temperature (°C),relative humidity of the measurement (%),span deviation,mass concentration of particles derived from Lorenz-Mie calculation of OPC scattering (μg/m³),mass concentration of particles derived from Lorenz-Mie calculation of OPC scattering (μg/m³),mass concentration of particles derived from Lorenz-Mie calculation of OPC scattering (μg/m³)
DateTimeUTC,F1_M11,P_M11,Q1_M11,Q2_M11,T1_M11,T2_M11,T3_M11,T4_M11,T5_M11,U1_M11,ZSPAN_M11,X0_M11,X2_M11,X1_M11
2024-02-24 07:00:00,SystemResetWarning,0829.7,5.01,000.00,018.8,017.9,000.0,027.2,020.4,09.8,0000.0,0001.84,0001.01,0000.70
2024-02-24 07:01:00,SystemResetWarning,0829.7,4.99,000.00,018.8,017.9,000.0,027.2,020.4,09.9,0000.0,0001.93,0001.03,0000.71
2024-02-24 07:02:00,SystemResetWarning,0829.7,4.99,000.00,018.8,017.9,000.0,027.2,020.4,09.8,0000.0,0001.91,0001.03,0000.72
2024-02-24 07:03:00,SystemResetWarning,0829.7,5.00,000.00,018.8,017.9,000.0,027.2,020.4,09.8,0000.0,0001.87,0001.02,0000.72
2024-02-24 07:04:00,SystemResetWarning,0829.7,5.00,000.00,018.8,017.9,000.0,027.2,020.4,09.8,0000.0,0001.79,0001.00,0000.71
2024-02-24 07:05:00,SystemResetWarning,0829.7,5.00,000.00,018.8,017.9,000.0,027.2,020.4,09.8,0000.0,0001.68,0000.99,0000.71
2024-02-24 07:06:00,SystemResetWarning,0829.7,5.01,000.00,018.8,017.9,000.0,027.2,020.4,09.7,0000.0,0001.60,0000.99,0000.70
2024-02-24 07:07:00,SystemResetWarning,0829.7,5.01,000.00,018.8,017.9,000.0,027.2,020.4,09.7,0000.0,0001.60,0000.99,0000.70
2024-02-24 07:08:00,SystemResetWarning,0829.7,5.00,000.00,018.7,017.9,000.0,027.2,020.4,09.1,0000.0,0001.46,0000.96,0000.70
2024-02-24 07:09:00,SystemResetWarning,0829.7,4.99,000.00,018.7,017.9,000.0,027.2,020.4,09.1,0000.0,0001.45,0000.94,0000.70
2024-02-24 07:10:00,SystemResetWarning,0829.7,4.99,000.00,018.7,017.9,000.0,027.2,020.4,09.2,0000.0,0001.48,0000.94,0000.70
2024-02-24 07:11:00,SystemResetWarning,0829.7,5.00,000.00,018.7,017.9,000.0,027.2,020.4,09.4,0000.0,0001.44,0000.93,0000.70
2024-02-24 07:12:00,SystemResetWarning,0829.7,5.00,000.00,018.7,017.9,000.0,027.2,020.4,09.4,0000.0,0001.38,0000.91,0000.68
2024-02-24 07:13:00,SystemResetWarning,0829.7,4.99,000.00,018.7,017.9,000.0,027.2,020.4,09.4,0000.0,0002.02,0000.90,0000.68
2024-02-24 07:14:00,SystemResetWarning,0829.7,5.00,000.00,018.7,017.9,000.0,027.1,020.4,09.4,0000.0,0002.80,0000.90,0000.67
2024-02-24 07:15:00,SystemResetWarning,0829.7,5.00,000.00,018.7,017.9,000.0,027.1,020.4,09.4,0000.0,0003.07,0000.90,0000.66
2024-02-24 07:16:00,SystemResetWarning,0829.7,5.00,000.00,018.7,017.9,000.0,027.1,020.4,09.4,0000.0,0003.13,0000.89,0000.65
2024-02-24 07:17:00,SystemResetWarning,0829.7,5.00,000.00,018.7,017.9,000.0,027.1,020.4,09.3,0000.0,0003.19,0000.88,0000.66
2024-02-24 07:18:00,SystemResetWarning,0829.7,5.01,000.00,018.7,017.9,000.0,027.1,020.3,09.2,0000.0,0003.17,0000.87,0000.65
2024-02-24 07:19:00,SystemResetWarning,0829.8,5.01,000.00,018.7,017.9,000.0,027.1,020.3,09.2,0000.0,0003.20,0000.88,0000.66
2024-02-24 07:20:00,SystemResetWarning,0829.8,5.01,000.00,018.7,017.9,000.0,027.1,020.3,09.1,0000.0,0003.07,0000.84,0000.65
2024-02-24 07:21:00,SystemResetWarning,0829.8,5.00,000.00,018.7,017.9,000.0,027.1,020.3,09.3,0000.0,0003.04,0000.83,0000.65
2024-02-24 07:22:00,SystemResetWarning,0829.8,4.99,000.00,018.7,017.9,000.0,027.1,020.3,09.5,0000.0,0003.08,0000.81,0000.64
2024-02-24 07:23:00,SystemResetWarning,0829.7,4.99,000.00,018.7,017.9,000.0,027.1,020.3,09.6,0000.0,0003.15,0000.83,0000.65
2024-02-24 07:24:00,SystemResetWarning,0829.7,4.99,000.00,018.7,017.9,000.0,027.1,020.3,09.5,0000.0,0002.64,0000.85,0000.65
2024-02-24 07:25:00,SystemResetWarning,0829.7,5.02,000.00,018.7,017.9,000.0,027.1,020.3,09.3,0000.0,0002.62,0000.85,0000.64
2024-02-24 07:26:00,SystemResetWarning,0829.8,5.01,000.00,018.7,017.9,000.0,027.1,020.3,09.4,0000.0,0002.83,0000.86,0000.65
2024-02-24 07:27:00,SystemResetWarning,0829.8,4.99,000.00,018.7,017.9,000.0,027.1,020.3,09.3,0000.0,0002.77,0000.87,0000.65
2024-02-24 07:28:00,SystemResetWarning,0829.8,4.99,000.00,018.6,017.9,000.0,027.1,020.2,09.4,0000.0,0002.68,0000.86,0000.65
2024-02-24 07:29:00,SystemResetWarning,0829.7,5.00,000.00,018.6,017.9,000.0,027.1,020.2,09.3,0000.0,0002.82,0000.88,0000.65
2024-02-24 07:30:00,SystemResetWarning,0829.7,5.00,000.00,018.6,017.8,000.0,027.0,020.3,09.2,0000.0,0002.95,0000.86,0000.64
2024-02-24 07:31:00,SystemResetWarning,0829.7,5.01,000.00,018.6,017.8,000.0,027.0,020.3,09.4,0000.0,0003.56,0000.87,0000.64
2024-02-24 07:32:00,SystemResetWarning,0829.7,5.01,000.00,018.6,017.8,000.0,027.0,020.3,09.5,0000.0,0003.74,0000.90,0000.64
2024-02-24 07:33:00,SystemResetWarning,0829.7,4.99,000.00,018.6,017.8,000.0,027.0,020.2,09.4,0000.0,0003.67,0000.90,0000.64
2024-02-24 07:34:00,SystemResetWarning,0829.7,5.00,000.00,018.6,017.8,000.0,027.0,020.2,09.4,0000.0,0003.57,0000.87,0000.63
2024-02-24 07:35:00,SystemResetWarning,0829.7,5.01,000.00,018.6,017.8,000.0,027.0,020.2,09.5,0000.0,0003.44,0000.84,0000.62
2024-02-24 07:36:00,SystemResetWarning,0829.7,5.00,000.00,018.6,017.8,000.0,027.0,020.3,09.7,0000.0,0002.89,0000.84,0000.63
2024-02-24 07:37:00,SystemResetWarning,0829.6,5.00,000.00,018.6,017.8,000.0,027.0,020.3,09.7,0000.0,0002.17,0000.83,0000.64
2024-02-24 07:38:00,SystemResetWarning,0829.6,5.00,000.00,018.6,017.8,000.0,027.0,020.3,09.7,0000.0,0002.12,0000.82,0000.64
2024-02-24 07:39:00,SystemResetWarning,0829.6,5.00,000.00,018.6,017.8,000.0,027.0,020.2,09.8,0000.0,0002.18,0000.84,0000.64
2024-02-24 07:40:00,SystemResetWarning,0829.6,5.00,000.00,018.6,017.8,000.0,027.0,020.2,09.7,0000.0,0002.13,0000.83,0000.63
2024-02-24 07:41:00,SystemResetWarning,0829.4,4.99,000.00,018.6,017.8,000.0,027.0,020.2,09.5,0000.0,0001.93,0000.84,0000.65
2024-02-24 07:42:00,SystemResetWarning,0829.4,5.00,000.00,018.6,017.8,000.0,027.0,020.2,09.4,0000.0,0001.73,0000.90,0000.65
2024-02-24 07:43:00,SystemResetWarning,0829.5,5.01,000.00,018.5,017.8,000.0,027.0,020.2,09.6,0000.0,0001.49,0000.93,0000.66
2024-02-24 07:44:00,SystemResetWarning,0829.4,5.01,000.00,018.5,017.8,000.0,027.0,020.1,09.7,0000.0,0001.49,0000.93,0000.67
2024-02-24 07:45:00,SystemResetWarning,0829.3,5.00,000.00,018.5,017.7,000.0,026.9,020.1,09.5,0000.0,0001.51,0000.94,0000.67
2024-02-24 07:46:00,SystemResetWarning,0829.4,4.99,000.00,018.5,017.7,000.0,026.9,020.1,09.5,0000.0,0001.62,0000.99,0000.68
2024-02-24 07:47:00,SystemResetWarning,0829.3,5.00,000.00,018.5,017.7,000.0,026.9,020.1,09.5,0000.0,0001.63,0000.98,0000.68
2024-02-24 07:48:00,SystemResetWarning,0829.4,5.00,000.00,018.5,017.7,000.0,026.9,020.1,09.5,0000.0,0001.66,0000.99,0000.68
2024-02-24 07:49:00,SystemResetWarning,0829.4,5.00,000.00,018.5,017.7,000.0,026.9,020.0,09.4,0000.0,0001.81,0001.04,0000.69
2024-02-24 07:50:00,SystemResetWarning,0829.3,5.00,000.00,018.4,017.7,000.0,026.9,020.0,09.7,0000.0,0002.06,0001.09,0000.71
2024-02-24 07:51:00,SystemResetWarning,0829.4,4.99,000.00,018.4,017.7,000.0,026.9,020.0,09.6,0000.0,0003.26,0001.20,0000.72
2024-02-24 07:52:00,SystemResetWarning,0829.3,5.00,000.00,018.4,017.7,000.0,026.9,020.0,09.8,0000.0,0003.29,0001.22,0000.72
2024-02-24 07:53:00,SystemResetWarning,0829.3,5.01,000.00,018.4,017.7,000.0,026.8,020.0,09.7,0000.0,0003.18,0001.18,0000.72
2024-02-24 07:54:00,SystemResetWarning,0829.3,4.99,000.00,018.4,017.6,000.0,026.8,020.0,09.6,0000.0,0002.98,0001.14,0000.72
2024-02-24 07:55:00,SystemResetWarning,0829.4,4.99,000.00,018.4,017.6,000.0,026.8,020.0,09.7,0000.0,0002.95,0001.14,0000.73
2024-02-24 07:56:00,SystemResetWarning,0829.3,5.00,000.00,018.4,017.6,000.0,026.9,020.0,09.8,0000.0,0003.05,0001.18,0000.73
2024-02-24 07:57:00,SystemResetWarning,0829.4,5.01,000.00,018.4,017.6,000.0,026.9,020.0,09.8,0000.0,0003.06,0001.18,0000.74
2024-02-24 07:58:00,SystemResetWarning,0829.4,5.01,000.00,018.4,017.6,000.0,026.8,020.0,09.8,0000.0,0003.14,0001.21,0000.75
2024-02-24 07:59:00,SystemResetWarning,0829.4,4.99,000.00,018.4,017.6,000.0,026.8,020.0,09.9,0000.0,0003.13,0001.22,0000.76
